Weather History for Keokuk, IA

Change the Weather History Date:

Wednesday, November 7, 2012

  Actual Average Record
Temperature  
Mean Temperature 44 °F -  
Max Temperature 50 °F 53 °F 75 °F (1966)
Min Temperature 39 °F 36 °F 15 °F (1991)
Degree Days  
Heating Degree Days 20    
Moisture  
Dew Point 36 °F    
Average Humidity 68    
Maximum Humidity 81    
Minimum Humidity 54    
Precipitation  
Precipitation 0.00 in - - ()
Sea Level Pressure  
Sea Level Pressure 30.09 in    
Wind  
Wind Speed 7 mph (NNW)    
Max Wind Speed 12 mph    
Max Gust Speed 20 mph    
Visibility 10 miles    
Events Rain    
Averages and records for this station are not official NWS values.
T = Trace of Precipitation, MM = Missing Value Source: NWS Daily Summary

Daily Weather History Graph

Daily Weather History Graph

Search for Another Location

Airport:

Trip Planner

Search our weather history database for the weather conditions in past years. The results will help you decide how hot, cold, wet, or windy it might be!

Date:

Astronomy

Nov. 07, 2012 Rise Set
Actual Time 6:43 AM CST 4:55 PM CST
Civil Twilight 6:14 AM CST 5:23 PM CST
Nautical Twilight 5:41 AM CST 5:56 PM CST
Astronomical Twilight 5:09 AM CST 6:28 PM CST
Moon No Moon Rise 1:05 PM CST (11/7)
Length of Visible Light 11h 09m
Length of Day
10h 12m
Last Quarter, 43% of the Moon is Illuminated
Nov 7
Last Quarter
Nov 13
New
Nov 20
First Quarter
Nov 28
Full
Dec 6
Last Quarter

Hourly Weather History & Observations

Time (CST) Temp. Windchill Dew Point Humidity Pressure Visibility Wind Dir Wind Speed Gust Speed Precip Events Conditions
12:15 AM 48.2 °F - 37.4 °F 66% 29.93 in 10.0 mi WNW 8.1 mph - N/A   Overcast
12:35 AM 48.2 °F - 37.4 °F 66% 29.94 in 10.0 mi WNW 11.5 mph - N/A   Overcast
12:55 AM 48.2 °F - 37.4 °F 66% 29.94 in 10.0 mi WNW 9.2 mph - N/A   Overcast
1:15 AM 48.2 °F - 37.4 °F 66% 29.94 in 10.0 mi WNW 10.4 mph - N/A   Overcast
1:35 AM 48.2 °F - 37.4 °F 66% 29.93 in 10.0 mi WNW 9.2 mph - N/A   Overcast
1:55 AM 46.4 °F 42.9 °F 37.4 °F 71% 29.94 in 7.0 mi NNW 6.9 mph - N/A Rain Light Rain
2:15 AM 46.4 °F 42.4 °F 37.4 °F 71% 29.94 in 10.0 mi NW 8.1 mph - N/A   Overcast
2:55 AM 48.2 °F - 37.4 °F 66% 29.94 in 10.0 mi NW 10.4 mph 18.4 mph N/A   Overcast
3:15 AM 48.2 °F - 37.4 °F 66% 29.94 in 10.0 mi NW 5.8 mph - N/A   Overcast
3:35 AM 46.4 °F 41.9 °F 37.4 °F 71% 29.94 in 10.0 mi NW 9.2 mph 17.3 mph N/A   Overcast
3:55 AM 46.4 °F 41.1 °F 37.4 °F 71% 29.95 in 10.0 mi NNW 11.5 mph 19.6 mph N/A   Overcast
4:15 AM 46.4 °F 41.1 °F 37.4 °F 71% 29.96 in 10.0 mi NNW 11.5 mph 18.4 mph N/A   Overcast
4:35 AM 46.4 °F 41.5 °F 37.4 °F 71% 29.97 in 10.0 mi NNW 10.4 mph 17.3 mph N/A   Overcast
4:55 AM 46.4 °F 41.1 °F 37.4 °F 71% 29.98 in 10.0 mi NNW 11.5 mph 17.3 mph N/A   Overcast
5:15 AM 44.6 °F 38.8 °F 37.4 °F 76% 29.99 in 7.0 mi NNW 11.5 mph 17.3 mph N/A   Overcast
5:35 AM 44.6 °F 39.7 °F 37.4 °F 76% 30.00 in 7.0 mi NNW 9.2 mph 17.3 mph N/A   Overcast
6:35 AM 44.6 °F 39.7 °F 37.4 °F 76% 30.02 in 10.0 mi NNW 9.2 mph - N/A   Overcast
6:55 AM 44.6 °F 40.7 °F 37.4 °F 76% 30.04 in 10.0 mi NNW 6.9 mph - N/A   Overcast
7:15 AM 44.6 °F 42.2 °F 37.4 °F 76% 30.05 in 10.0 mi NNW 4.6 mph - N/A   Overcast
7:35 AM 46.4 °F 42.9 °F 37.4 °F 71% 30.06 in 10.0 mi North 6.9 mph - N/A   Overcast
7:55 AM 46.4 °F 42.9 °F 37.4 °F 71% 30.07 in 10.0 mi North 6.9 mph - N/A   Overcast
8:15 AM 46.4 °F 43.5 °F 37.4 °F 71% 30.08 in 10.0 mi NNW 5.8 mph - N/A   Overcast
8:35 AM 46.4 °F 42.4 °F 37.4 °F 71% 30.09 in 10.0 mi North 8.1 mph - N/A   Overcast
8:55 AM 46.4 °F 42.9 °F 37.4 °F 71% 30.10 in 10.0 mi North 6.9 mph - N/A   Overcast
9:15 AM 46.4 °F 42.9 °F 37.4 °F 71% 30.10 in 10.0 mi North 6.9 mph - N/A   Overcast
9:35 AM 46.4 °F 41.5 °F 37.4 °F 71% 30.11 in 10.0 mi North 10.4 mph - N/A   Overcast
9:55 AM 46.4 °F 42.9 °F 37.4 °F 71% 30.12 in 10.0 mi North 6.9 mph - N/A   Overcast
10:15 AM 46.4 °F 41.9 °F 37.4 °F 71% 30.13 in 10.0 mi NNE 9.2 mph - N/A   Overcast
10:35 AM 46.4 °F 41.9 °F 37.4 °F 71% 30.13 in 10.0 mi North 9.2 mph - N/A   Overcast
10:55 AM 46.4 °F 42.4 °F 37.4 °F 71% 30.13 in 10.0 mi North 8.1 mph - N/A   Overcast
11:15 AM 48.2 °F - 37.4 °F 66% 30.13 in 10.0 mi NNE 8.1 mph - N/A   Overcast
11:35 AM 48.2 °F - 37.4 °F 66% 30.13 in 10.0 mi North 5.8 mph - N/A   Overcast
11:55 AM 48.2 °F - 37.4 °F 66% 30.13 in 10.0 mi North 5.8 mph - N/A   Overcast
12:15 PM 48.2 °F - 37.4 °F 66% 30.12 in 10.0 mi North 6.9 mph - N/A   Overcast
12:35 PM 48.2 °F - 37.4 °F 66% 30.12 in 10.0 mi North 6.9 mph - N/A   Overcast
12:55 PM 48.2 °F - 37.4 °F 66% 30.12 in 10.0 mi North 4.6 mph - N/A   Overcast
1:15 PM 48.2 °F - 35.6 °F 62% 30.12 in 10.0 mi NE 4.6 mph - N/A   Overcast
1:35 PM 48.2 °F - 35.6 °F 62% 30.12 in 10.0 mi Calm Calm - N/A   Overcast
1:55 PM 48.2 °F - 37.4 °F 66% 30.12 in 10.0 mi North 4.6 mph - N/A   Overcast
2:15 PM 48.2 °F - 35.6 °F 62% 30.11 in 10.0 mi North 3.5 mph - N/A   Overcast
2:35 PM 48.2 °F - 33.8 °F 58% 30.12 in 10.0 mi NW 4.6 mph - N/A   Overcast
2:55 PM 50.0 °F - 33.8 °F 54% 30.12 in 10.0 mi Calm Calm - N/A   Overcast
3:15 PM 48.2 °F - 35.6 °F 62% 30.13 in 10.0 mi West 5.8 mph - N/A   Overcast
3:35 PM 48.2 °F - 35.6 °F 62% 30.13 in 10.0 mi WNW 8.1 mph - N/A   Overcast
3:55 PM 48.2 °F - 35.6 °F 62% 30.13 in 10.0 mi WNW 4.6 mph - N/A   Overcast
4:15 PM 48.2 °F - 33.8 °F 58% 30.13 in 10.0 mi WNW 3.5 mph - N/A   Overcast
4:35 PM 48.2 °F - 33.8 °F 58% 30.13 in 10.0 mi Calm Calm - N/A   Overcast
4:55 PM 48.2 °F - 35.6 °F 62% 30.13 in 10.0 mi Calm Calm - N/A   Overcast
5:15 PM 48.2 °F - 35.6 °F 62% 30.14 in 10.0 mi Calm Calm - N/A   Overcast
5:35 PM 46.4 °F - 37.4 °F 71% 30.14 in 10.0 mi Calm Calm - N/A   Overcast
5:55 PM 46.4 °F - 35.6 °F 66% 30.14 in 10.0 mi Calm Calm - N/A   Overcast
6:15 PM 46.4 °F - 35.6 °F 66% 30.15 in 10.0 mi Calm Calm - N/A   Overcast
6:35 PM 46.4 °F - 35.6 °F 66% 30.15 in 10.0 mi Calm Calm - N/A   Overcast
6:55 PM 46.4 °F - 35.6 °F 66% 30.15 in 10.0 mi Calm Calm - N/A   Overcast
7:15 PM 46.4 °F - 35.6 °F 66% 30.15 in 10.0 mi Calm Calm - N/A   Overcast
7:35 PM 46.4 °F - 35.6 °F 66% 30.15 in 10.0 mi Calm Calm - N/A   Overcast
7:55 PM 48.2 °F - 33.8 °F 58% 30.15 in 10.0 mi Calm Calm - N/A   Overcast
8:15 PM 44.6 °F 42.2 °F 35.6 °F 71% 30.15 in 10.0 mi East 4.6 mph - N/A   Mostly Cloudy
8:35 PM 42.8 °F 40.1 °F 33.8 °F 70% 30.15 in 10.0 mi East 4.6 mph - N/A   Clear
8:55 PM 42.8 °F 40.1 °F 35.6 °F 76% 30.16 in 10.0 mi ESE 4.6 mph - N/A   Clear
9:15 PM 42.8 °F 41.1 °F 33.8 °F 70% 30.16 in 10.0 mi ESE 3.5 mph - N/A   Clear
9:35 PM 42.8 °F 41.1 °F 33.8 °F 70% 30.16 in 10.0 mi SE 3.5 mph - N/A   Clear
9:55 PM 42.8 °F - 33.8 °F 70% 30.16 in 10.0 mi Calm Calm - N/A   Clear
10:15 PM 41.0 °F - 33.8 °F 76% 30.17 in 10.0 mi Calm Calm - N/A   Clear
10:35 PM 42.8 °F 41.1 °F 33.8 °F 70% 30.16 in 10.0 mi SE 3.5 mph - N/A   Clear
10:55 PM 42.8 °F 40.1 °F 33.8 °F 70% 30.17 in 10.0 mi SE 4.6 mph - N/A   Clear
11:15 PM 41.0 °F 38.0 °F 33.8 °F 76% 30.17 in 7.0 mi ESE 4.6 mph - N/A   Clear
11:35 PM 39.2 °F 37.0 °F 32.0 °F 75% 30.17 in 7.0 mi SE 3.5 mph - N/A   Clear
11:55 PM 39.2 °F - 33.8 °F 81% 30.17 in 7.0 mi Calm Calm - N/A   Clear